GFSFLT2_prec_cthk_105.txt.gz
RH
23 23 21 19 19 19 17 17 15 17 17 17 20 24 29 34 37 45 51 61 63 64 64 63 63 65 68 70 63 56 50 51
23 23 23 21 20 20 20 19 17 17 18 18 19 22 26 32 36 43 51 64 70 67 67 65 67 68 69 73 67 61 54 51
23 23 23 23 22 22 21 20 20 18 20 19 19 21 25 30 36 41 47 56 61 65 65 65 68 69 70 75 76 70 59 51
27 26 25 24 25 24 23 22 20 19 21 20 19 21 24 28 35 40 45 50 55 58 64 66 69 70 75 81 82 78 80 63
28 29 29 27 25 25 24 24 21 21 22 22 20 22 25 27 32 36 40 45 48 52 57 66 75 72 78 84 84 83 84 84
38 38 37 32 28 26 27 26 23 22 23 24 23 23 25 26 29 33 36 38 41 45 51 67 73 80 80 80 88 84 83 87
36 33 34 34 34 31 28 28 25 23 25 25 25 25 25 24 28 32 35 38 38 39 43 45 54 69 78 79 88 87 86 93
44 34 32 30 31 32 32 30 28 26 27 27 28 28 26 26 27 31 35 39 41 42 41 47 52 55 60 65 82 86 88 91
46 39 30 28 28 31 31 35 30 27 31 30 31 32 29 28 28 31 34 40 44 47 50 49 53 57 54 57 79 87 90 91
34 43 36 29 27 26 29 31 37 30 34 33 33 35 32 32 32 33 36 40 45 50 54 58 46 50 64 68 74 78 89 93
34 33 34 34 27 28 28 28 35 46 39 37 38 38 37 35 35 36 40 42 46 53 58 53 50 48 59 76 76 84 91 93
36 35 31 29 31 32 32 32 30 45 53 48 43 41 40 37 39 40 44 45 49 58 58 53 52 54 60 72 84 85 87 91
36 35 30 32 34 39 28 27 28 34 49 64 56 48 44 40 43 46 47 48 50 59 57 52 52 57 70 83 91 88 91 94
33 34 29 29 30 34 25 23 27 31 45 62 54 53 49 44 45 49 50 51 53 61 58 53 54 61 74 90 94 98 99 96
29 29 26 28 29 30 27 28 33 38 52 58 47 46 51 47 49 51 53 52 55 60 59 56 57 61 72 89 93 95 94 98
30 31 29 32 30 28 25 27 29 33 46 45 53 51 53 45 52 53 53 52 57 60 60 57 58 58 68 85 94 93 95 98
36 36 32 31 29 25 28 30 30 35 38 44 42 45 50 39 49 53 53 55 63 65 61 52 60 57 60 77 91 97 98 98
41 43 35 34 29 29 26 28 33 34 40 37 36 42 41 38 46 51 51 55 64 65 60 53 56 55 56 70 82 94 96 96
48 43 37 34 32 25 24 26 32 37 39 39 44 41 38 37 43 47 50 52 61 64 57 56 50 54 53 67 74 87 95 97
44 39 40 38 33 33 28 31 38 41 52 45 42 35 36 37 44 48 51 53 63 57 55 48 50 52 53 61 69 86 94 97

GFSFLT2_prec_cthk_108.txt.gz
RH
25 26 26 25 24 23 22 22 22 21 20 21 21 22 24 26 30 38 46 54 57 56 55 55 54 54 56 57 66 64 58 50
27 28 27 27 26 24 24 24 24 24 22 22 22 23 25 25 29 33 39 44 51 56 57 56 54 54 60 62 64 69 65 57
28 27 28 27 27 26 26 26 25 25 23 22 24 24 24 26 28 32 37 41 47 54 55 56 55 57 60 62 66 72 70 62
29 28 28 29 29 29 28 27 27 25 24 22 23 24 25 26 28 31 35 38 43 49 51 53 54 57 61 65 66 78 78 79
37 35 32 31 30 30 29 28 28 28 27 23 23 24 27 27 30 31 34 37 39 45 47 50 52 56 64 69 70 79 83 84
40 42 42 40 36 34 31 30 31 29 28 26 24 25 27 28 30 30 32 35 36 40 43 46 49 54 60 66 74 81 84 88
53 48 45 48 48 42 37 35 32 31 30 30 25 26 27 29 31 31 32 35 35 38 40 42 43 43 48 55 68 78 79 85
69 63 55 51 46 46 43 40 34 33 33 33 29 27 30 32 33 32 33 35 35 39 42 46 50 49 50 52 56 63 68 82
49 61 63 55 51 52 53 40 34 33 32 35 34 29 31 34 36 34 34 37 39 42 46 50 54 55 52 54 59 61 64 81
32 38 44 47 50 49 50 45 40 40 38 36 39 34 33 36 38 37 35 38 40 43 46 49 56 57 57 48 51 66 71 80
28 30 33 39 37 50 48 48 45 42 42 40 39 36 35 37 41 41 38 39 41 43 46 50 58 61 54 51 49 59 75 83
26 28 28 33 36 38 53 55 48 43 42 42 44 38 38 40 44 45 43 42 43 45 48 53 60 63 56 56 56 62 72 84
22 27 28 31 32 31 37 46 43 42 42 43 44 51 47 41 42 48 48 45 45 48 50 54 64 65 57 54 60 68 80 94
17 19 25 29 34 30 35 36 44 47 40 42 44 52 57 48 46 49 51 50 51 49 52 55 66 65 58 56 61 69 90 91
16 17 20 23 30 35 37 42 47 48 41 38 42 42 59 61 58 58 58 57 54 54 55 55 65 67 62 59 60 62 84 90
18 17 19 21 25 30 38 39 37 35 42 35 35 42 56 51 53 59 58 62 56 57 56 59 66 68 62 58 61 58 80 88
22 21 20 23 26 27 36 36 34 31 38 36 36 41 60 59 50 53 60 53 60 58 57 60 66 69 60 53 60 54 71 87
29 26 26 29 31 33 36 34 33 36 38 35 38 40 51 63 55 56 51 44 54 57 57 59 65 72 62 54 56 51 62 79
36 35 36 36 39 41 41 39 39 38 40 41 38 41 51 52 54 48 47 37 49 55 55 58 67 71 62 56 54 52 57 74
47 46 50 50 52 49 46 45 48 46 47 48 49 51 50 53 48 47 47 38 47 52 55 59 68 68 61 55 50 51 55 66

GFSFLT2_prec_cthk_114.txt.gz
RH
33 33 35 35 32 30 29 28 29 30 30 30 30 28 28 29 30 30 34 36 40 47 49 47 48 48 46 43 44 50 64 71
36 37 36 35 34 33 31 30 30 30 31 33 32 29 29 31 31 33 34 36 40 46 50 50 51 49 48 46 48 52 63 71
37 40 40 36 38 35 34 32 31 32 32 34 34 34 32 32 32 33 35 37 39 41 46 52 53 50 49 50 50 58 65 67
43 42 43 38 42 40 36 35 34 35 33 33 36 40 39 39 35 34 36 38 39 41 44 49 51 51 50 52 54 62 62 63
49 47 48 42 45 42 41 42 41 37 36 36 37 41 40 39 42 39 40 37 38 40 41 45 51 56 55 54 56 60 64 67
59 57 52 47 42 43 39 43 39 37 37 39 40 38 40 40 41 41 40 41 40 37 41 45 50 52 52 54 53 60 61 63
56 60 58 52 49 43 41 40 46 41 40 39 40 37 36 37 39 42 44 44 45 41 40 41 46 50 49 51 54 55 58 64
42 55 63 56 50 47 44 42 44 42 42 42 41 42 39 36 39 40 44 42 43 46 43 41 43 47 49 51 55 55 63 66
37 45 54 48 47 49 45 43 43 44 44 45 44 45 49 41 36 40 42 43 41 44 47 44 42 45 49 56 56 61 63 61
34 38 46 49 44 46 52 53 47 45 47 50 46 47 49 48 39 36 42 44 43 42 44 46 44 42 46 51 56 61 62 59
28 31 33 40 49 54 52 57 66 61 60 56 52 53 48 48 46 41 41 43 43 47 45 45 49 44 44 48 55 59 62 60
11 23 29 33 40 48 53 54 59 69 67 54 49 46 46 47 52 50 43 45 46 46 47 48 50 49 47 50 52 59 67 54
10 9 19 26 32 38 44 48 53 55 58 53 45 44 46 50 54 51 44 42 44 45 48 51 52 53 52 51 52 52 59 60
17 15 13 17 26 28 35 39 40 47 51 56 55 50 46 49 51 53 45 42 45 45 46 50 53 53 54 58 55 55 58 64
19 17 17 15 16 21 25 36 41 38 40 40 44 42 40 44 45 47 51 48 49 50 50 51 53 54 60 63 62 55 58 67
24 20 17 17 19 21 22 28 31 31 34 34 32 34 37 38 45 46 49 54 55 50 52 55 57 53 64 65 65 62 59 66
29 26 22 22 24 24 23 20 24 30 29 31 33 31 34 38 45 50 48 51 55 55 58 58 57 59 63 68 69 66 61 62
41 34 32 30 27 28 29 26 24 30 29 27 30 33 26 32 44 51 49 47 49 54 65 68 69 70 73 73 68 68 60 62
54 50 47 46 39 30 31 30 28 33 31 29 32 30 32 31 41 49 50 46 52 62 75 68 62 65 70 66 68 65 63 61
58 56 52 54 49 36 34 33 33 33 37 36 37 33 36 38 44 50 50 48 53 60 67 66 63 72 70 63 61 58 62 62

GFSFLT2_prec_cthk_117.txt.gz
RH
39 33 33 36 38 37 33 29 27 28 28 29 30 30 31 31 31 33 35 36 38 43 48 49 49 46 44 42 40 40 62 68
42 35 35 37 41 38 36 33 29 28 29 30 31 32 32 31 33 34 36 37 39 44 51 52 50 49 46 43 42 44 53 70
45 38 40 44 44 40 38 37 34 32 31 33 34 35 34 35 33 34 37 38 38 41 45 47 51 51 47 45 47 49 58 68
44 44 42 50 52 46 43 41 37 33 32 33 36 37 39 40 39 35 38 42 48 43 42 43 47 50 48 46 48 57 62 67
46 51 47 47 55 55 48 47 46 39 36 36 38 42 44 41 45 41 41 41 43 42 40 41 44 51 52 48 50 56 60 65
48 53 57 51 53 53 54 56 52 50 42 40 40 45 48 47 45 44 40 41 40 40 40 38 43 49 49 50 51 55 59 64
53 55 59 58 56 56 48 50 47 51 52 45 44 46 49 53 50 46 43 45 44 44 42 44 43 45 48 44 48 54 57 58
33 49 62 66 65 59 53 47 52 46 45 46 48 53 48 53 55 57 52 44 42 45 46 44 45 44 46 43 43 47 54 59
30 35 41 64 76 73 60 54 54 51 47 47 43 49 49 48 51 59 60 57 43 43 47 45 49 48 47 45 45 50 53 58
25 29 35 44 60 71 72 61 60 53 54 48 42 44 51 51 49 50 60 61 54 45 46 47 45 49 49 47 43 45 49 53
23 26 30 35 47 59 70 63 61 63 56 52 47 43 47 54 52 48 51 58 58 51 48 44 47 48 49 49 47 47 49 52
21 22 28 30 32 43 59 71 62 62 64 57 53 48 48 57 61 56 49 49 54 57 49 49 51 52 50 51 51 50 52 53
19 22 20 19 24 27 38 56 64 64 61 64 66 58 57 66 61 61 50 47 47 54 53 53 49 55 55 53 53 53 52 53
25 20 18 20 21 24 27 34 50 54 63 60 69 72 65 65 59 56 51 51 54 56 54 53 54 50 55 58 57 55 55 58
31 29 23 20 20 20 21 22 30 43 44 53 55 62 64 62 54 51 52 49 50 59 59 56 55 52 52 55 57 53 64 60
38 35 33 27 23 22 23 24 24 28 38 40 48 52 55 56 63 62 50 48 50 51 62 58 62 60 56 53 55 58 66 69
39 38 36 34 29 25 23 23 24 24 32 44 35 40 49 44 50 61 52 47 48 49 57 64 62 61 60 58 59 59 65 70
38 39 40 38 35 31 27 26 25 23 25 37 45 41 42 41 41 44 50 47 49 51 53 59 65 69 66 60 60 60 67 72
41 41 42 45 43 38 33 28 26 27 24 26 51 45 38 29 37 36 37 43 47 51 55 55 60 63 73 73 74 65 75 79
50 47 47 49 48 45 42 35 30 26 25 23 32 67 36 37 28 31 35 37 46 55 58 59 57 60 73 73 78 66 69 74